Time,TemperatureF,DewpointF,PressureIn,WindDirection,WindDirectionDegrees,WindSpeedMPH,WindSpeedGustMPH,Humidity,HourlyPrecipIn,Conditions,Clouds,dailyrainin,SoftwareType,DateUTC
2013-04-26 00:01:00,71.6,63.7,30.22,South,180,0.0,2.0,76,0.00,,,0.00,meteohub,2013-04-26 04:01:00,
2013-04-26 00:03:00,71.6,63.7,30.22,South,180,0.0,2.0,76,0.00,,,0.00,meteohub,2013-04-26 04:03:00,
2013-04-26 00:07:00,71.6,63.7,30.21,South,180,0.0,2.0,76,0.00,,,0.00,meteohub,2013-04-26 04:07:00,
2013-04-26 00:12:00,71.6,64.0,30.21,SE,135,0.0,2.0,77,0.00,,,0.00,meteohub,2013-04-26 04:12:00,
2013-04-26 00:17:00,71.6,64.0,30.21,South,180,1.0,2.0,77,0.00,,,0.00,meteohub,2013-04-26 04:17:00,
2013-04-26 00:19:00,71.4,64.2,30.21,South,180,0.0,2.0,78,0.00,,,0.00,meteohub,2013-04-26 04:19:00,
2013-04-26 00:24:00,71.4,64.2,30.21,South,180,2.0,2.0,78,0.00,,,0.00,meteohub,2013-04-26 04:24:00,
2013-04-26 00:29:00,71.2,64.0,30.21,South,180,1.0,2.0,78,0.00,,,0.00,meteohub,2013-04-26 04:29:00,
2013-04-26 00:34:00,71.1,63.9,30.21,SW,225,1.0,2.0,78,0.00,,,0.00,meteohub,2013-04-26 04:34:00,
2013-04-26 00:39:00,70.9,64.0,30.21,SW,225,0.0,2.0,79,0.00,,,0.00,meteohub,2013-04-26 04:39:00,
2013-04-26 00:44:00,70.7,63.9,30.21,SW,225,0.0,2.0,79,0.00,,,0.00,meteohub,2013-04-26 04:44:00,
2013-04-26 00:49:00,70.3,63.9,30.21,SW,225,0.0,2.0,80,0.00,,,0.00,meteohub,2013-04-26 04:49:00,
2013-04-26 00:54:00,70.0,63.9,30.21,SW,225,2.0,2.0,81,0.00,,,0.00,meteohub,2013-04-26 04:54:00,
2013-04-26 00:59:00,70.0,63.9,30.21,SW,225,0.0,2.0,81,0.00,,,0.00,meteohub,2013-04-26 04:59:00,
2013-04-26 01:04:00,69.8,64.0,30.21,SE,135,0.0,2.0,82,0.00,,,0.00,meteohub,2013-04-26 05:04:00,
2013-04-26 01:09:00,69.8,64.0,30.21,South,180,0.0,2.0,82,0.00,,,0.00,meteohub,2013-04-26 05:09:00,
2013-04-26 01:14:00,69.6,64.2,30.20,South,180,0.0,2.0,83,0.00,,,0.00,meteohub,2013-04-26 05:14:00,
2013-04-26 01:19:00,69.4,64.0,30.20,South,180,0.0,2.0,83,0.00,,,0.00,meteohub,2013-04-26 05:19:00,
2013-04-26 01:24:00,69.4,64.0,30.21,South,180,0.0,1.0,83,0.00,,,0.00,meteohub,2013-04-26 05:24:00,
2013-04-26 01:29:00,69.3,64.2,30.20,South,180,0.0,0.0,84,0.00,,,0.00,meteohub,2013-04-26 05:29:00,
2013-04-26 01:34:00,69.1,64.0,30.20,South,180,0.0,0.0,84,0.00,,,0.00,meteohub,2013-04-26 05:34:00,
2013-04-26 01:39:00,68.9,63.9,30.20,South,180,0.0,0.0,84,0.00,,,0.00,meteohub,2013-04-26 05:39:00,
2013-04-26 01:44:00,68.5,63.5,30.19,South,180,0.0,0.0,84,0.00,,,0.00,meteohub,2013-04-26 05:44:00,
2013-04-26 01:50:00,68.4,63.7,30.20,South,180,0.0,0.0,85,0.00,,,0.00,meteohub,2013-04-26 05:50:00,
2013-04-26 01:55:00,68.2,63.5,30.19,South,180,0.0,0.0,85,0.00,,,0.00,meteohub,2013-04-26 05:55:00,
2013-04-26 02:00:00,68.0,63.3,30.19,South,180,0.0,1.0,85,0.00,,,0.00,meteohub,2013-04-26 06:00:00,
2013-04-26 02:05:00,68.0,63.3,30.19,South,180,0.0,1.0,85,0.00,,,0.00,meteohub,2013-04-26 06:05:00,
2013-04-26 02:10:00,67.8,63.9,30.19,South,180,0.0,1.0,87,0.00,,,0.00,meteohub,2013-04-26 06:10:00,
2013-04-26 02:15:00,67.6,64.0,30.19,South,180,0.0,0.0,88,0.00,,,0.00,meteohub,2013-04-26 06:15:00,
2013-04-26 02:20:00,67.5,63.9,30.19,South,180,0.0,0.0,88,0.00,,,0.00,meteohub,2013-04-26 06:20:00,
2013-04-26 02:25:00,67.3,63.7,30.19,South,180,0.0,0.0,88,0.00,,,0.00,meteohub,2013-04-26 06:25:00,
2013-04-26 02:30:00,67.1,63.5,30.18,South,180,0.0,0.0,88,0.00,,,0.00,meteohub,2013-04-26 06:30:00,
2013-04-26 02:35:00,66.9,63.5,30.18,South,180,0.0,0.0,89,0.00,,,0.00,meteohub,2013-04-26 06:35:00,
2013-04-26 02:40:00,66.9,63.5,30.18,South,180,1.0,0.0,89,0.00,,,0.00,meteohub,2013-04-26 06:40:00,
2013-04-26 02:45:00,66.7,63.7,30.18,South,180,0.0,0.0,90,0.00,,,0.00,meteohub,2013-04-26 06:45:00,
2013-04-26 02:50:00,66.6,63.5,30.18,South,180,0.0,1.0,90,0.00,,,0.00,meteohub,2013-04-26 06:50:00,
2013-04-26 02:55:00,66.6,63.5,30.18,South,180,0.0,1.0,90,0.00,,,0.00,meteohub,2013-04-26 06:55:00,
2013-04-26 03:00:00,66.6,63.5,30.18,South,180,0.0,0.0,90,0.00,,,0.00,meteohub,2013-04-26 07:00:00,
2013-04-26 03:05:00,66.4,63.7,30.17,South,180,0.0,0.0,91,0.00,,,0.00,meteohub,2013-04-26 07:05:00,
2013-04-26 03:10:00,66.2,63.5,30.17,South,180,0.0,0.0,91,0.00,,,0.00,meteohub,2013-04-26 07:10:00,
2013-04-26 03:15:00,66.0,63.7,30.17,South,180,0.0,0.0,92,0.00,,,0.00,meteohub,2013-04-26 07:15:00,
2013-04-26 03:20:00,65.8,63.5,30.17,South,180,0.0,0.0,92,0.00,,,0.00,meteohub,2013-04-26 07:20:00,
2013-04-26 03:25:00,65.7,63.3,30.17,South,180,0.0,0.0,92,0.00,,,0.00,meteohub,2013-04-26 07:25:00,
2013-04-26 03:30:00,65.7,63.5,30.17,South,180,0.0,0.0,93,0.00,,,0.00,meteohub,2013-04-26 07:30:00,
2013-04-26 03:35:00,65.5,63.3,30.17,South,180,0.0,0.0,93,0.00,,,0.00,meteohub,2013-04-26 07:35:00,
2013-04-26 03:40:00,65.3,63.5,30.17,South,180,0.0,0.0,94,0.00,,,0.00,meteohub,2013-04-26 07:40:00,
2013-04-26 03:45:00,65.1,63.3,30.17,South,180,0.0,0.0,94,0.00,,,0.00,meteohub,2013-04-26 07:45:00,
2013-04-26 03:51:00,65.1,63.3,30.17,South,180,0.0,0.0,94,0.00,,,0.00,meteohub,2013-04-26 07:51:00,
2013-04-26 03:56:00,64.9,63.1,30.17,South,180,0.0,0.0,94,0.00,,,0.00,meteohub,2013-04-26 07:56:00,
2013-04-26 04:01:00,64.9,63.5,30.17,South,180,0.0,0.0,95,0.00,,,0.00,meteohub,2013-04-26 08:01:00,
2013-04-26 04:06:00,64.9,63.5,30.17,South,180,0.0,0.0,95,0.00,,,0.00,meteohub,2013-04-26 08:06:00,
2013-04-26 04:11:00,64.9,63.5,30.17,South,180,0.0,0.0,95,0.00,,,0.00,meteohub,2013-04-26 08:11:00,
2013-04-26 04:16:00,64.8,63.3,30.18,South,180,0.0,0.0,95,0.00,,,0.00,meteohub,2013-04-26 08:16:00,
2013-04-26 04:21:00,64.8,63.3,30.17,South,180,0.0,0.0,95,0.00,,,0.00,meteohub,2013-04-26 08:21:00,
2013-04-26 04:26:00,64.8,63.3,30.17,South,180,0.0,0.0,95,0.00,,,0.00,meteohub,2013-04-26 08:26:00,
2013-04-26 04:31:00,64.6,63.5,30.17,South,180,0.0,0.0,96,0.00,,,0.00,meteohub,2013-04-26 08:31:00,
2013-04-26 04:36:00,64.6,63.5,30.17,South,180,0.0,0.0,96,0.00,,,0.00,meteohub,2013-04-26 08:36:00,
2013-04-26 04:41:00,64.4,63.3,30.17,South,180,0.0,0.0,96,0.00,,,0.00,meteohub,2013-04-26 08:41:00,
2013-04-26 04:46:00,64.4,63.3,30.17,South,180,0.0,0.0,96,0.00,,,0.00,meteohub,2013-04-26 08:46:00,
2013-04-26 04:51:00,64.2,62.8,30.17,South,180,0.0,0.0,95,0.00,,,0.00,meteohub,2013-04-26 08:51:00,
2013-04-26 04:56:00,64.2,62.8,30.17,South,180,0.0,0.0,95,0.00,,,0.00,meteohub,2013-04-26 08:56:00,
2013-04-26 05:01:00,64.0,63.0,30.17,South,180,0.0,0.0,96,0.00,,,0.00,meteohub,2013-04-26 09:01:00,
2013-04-26 05:06:00,64.0,63.0,30.17,South,180,0.0,0.0,96,0.00,,,0.00,meteohub,2013-04-26 09:06:00,
2013-04-26 05:11:00,64.0,63.0,30.17,South,180,0.0,0.0,96,0.00,,,0.00,meteohub,2013-04-26 09:11:00,
2013-04-26 05:16:00,63.9,62.8,30.17,South,180,0.0,0.0,96,0.00,,,0.00,meteohub,2013-04-26 09:16:00,
2013-04-26 05:21:00,63.9,62.8,30.17,South,180,0.0,0.0,96,0.00,,,0.00,meteohub,2013-04-26 09:21:00,
2013-04-26 05:27:00,63.9,62.8,30.17,South,180,0.0,0.0,96,0.00,,,0.00,meteohub,2013-04-26 09:27:00,
2013-04-26 05:32:00,63.7,62.6,30.17,South,180,0.0,0.0,96,0.00,,,0.00,meteohub,2013-04-26 09:32:00,
2013-04-26 05:37:00,63.7,62.8,30.17,South,180,0.0,0.0,97,0.00,,,0.00,meteohub,2013-04-26 09:37:00,
2013-04-26 05:42:00,63.7,62.8,30.17,South,180,0.0,0.0,97,0.00,,,0.00,meteohub,2013-04-26 09:42:00,
2013-04-26 05:47:00,63.5,62.6,30.17,South,180,0.0,0.0,97,0.00,,,0.00,meteohub,2013-04-26 09:47:00,
2013-04-26 05:52:00,63.5,62.6,30.17,South,180,0.0,0.0,97,0.00,,,0.00,meteohub,2013-04-26 09:52:00,
2013-04-26 05:57:00,63.3,62.4,30.17,South,180,0.0,0.0,97,0.00,,,0.00,meteohub,2013-04-26 09:57:00,
2013-04-26 06:02:00,63.3,62.4,30.17,South,180,0.0,0.0,97,0.00,,,0.00,meteohub,2013-04-26 10:02:00,
2013-04-26 06:07:00,63.3,62.4,30.17,South,180,0.0,0.0,97,0.00,,,0.00,meteohub,2013-04-26 10:07:00,
2013-04-26 06:12:00,63.1,62.2,30.17,South,180,0.0,0.0,97,0.00,,,0.00,meteohub,2013-04-26 10:12:00,
2013-04-26 06:17:00,63.1,62.2,30.17,South,180,0.0,0.0,97,0.00,,,0.00,meteohub,2013-04-26 10:17:00,
2013-04-26 06:22:00,63.1,62.2,30.17,South,180,0.0,0.0,97,0.00,,,0.00,meteohub,2013-04-26 10:22:00,
2013-04-26 06:27:00,63.0,62.1,30.18,South,180,0.0,0.0,97,0.00,,,0.00,meteohub,2013-04-26 10:27:00,
2013-04-26 06:32:00,63.0,62.1,30.17,South,180,0.0,0.0,97,0.00,,,0.00,meteohub,2013-04-26 10:32:00,
2013-04-26 06:37:00,63.0,62.1,30.18,South,180,0.0,0.0,97,0.00,,,0.00,meteohub,2013-04-26 10:37:00,
2013-04-26 06:42:00,62.8,61.9,30.18,South,180,0.0,0.0,97,0.00,,,0.00,meteohub,2013-04-26 10:42:00,
2013-04-26 06:47:00,62.8,61.9,30.18,South,180,0.0,0.0,97,0.00,,,0.00,meteohub,2013-04-26 10:47:00,
2013-04-26 06:52:00,62.8,61.9,30.19,South,180,0.0,0.0,97,0.00,,,0.00,meteohub,2013-04-26 10:52:00,
2013-04-26 06:57:00,62.8,61.9,30.19,South,180,0.0,0.0,97,0.00,,,0.00,meteohub,2013-04-26 10:57:00,
2013-04-26 07:02:00,62.8,61.9,30.19,South,180,0.0,0.0,97,0.00,,,0.00,meteohub,2013-04-26 11:02:00,
2013-04-26 07:07:00,62.8,61.9,30.19,South,180,0.0,0.0,97,0.00,,,0.00,meteohub,2013-04-26 11:07:00,
2013-04-26 07:12:00,62.8,61.9,30.19,South,180,0.0,0.0,97,0.00,,,0.00,meteohub,2013-04-26 11:12:00,
2013-04-26 07:17:00,63.0,62.1,30.19,South,180,0.0,0.0,97,0.00,,,0.00,meteohub,2013-04-26 11:17:00,
2013-04-26 07:22:00,63.1,62.2,30.19,South,180,0.0,0.0,97,0.00,,,0.00,meteohub,2013-04-26 11:22:00,
2013-04-26 07:27:00,63.1,62.2,30.19,South,180,0.0,0.0,97,0.00,,,0.00,meteohub,2013-04-26 11:27:00,
2013-04-26 07:32:00,63.1,62.2,30.20,South,180,0.0,0.0,97,0.00,,,0.00,meteohub,2013-04-26 11:32:00,
2013-04-26 07:37:00,63.3,62.4,30.20,South,180,0.0,0.0,97,0.00,,,0.00,meteohub,2013-04-26 11:37:00,
2013-04-26 07:42:00,63.7,62.8,30.20,South,180,0.0,0.0,97,0.00,,,0.00,meteohub,2013-04-26 11:42:00,
2013-04-26 07:47:00,64.0,63.1,30.21,South,180,0.0,0.0,97,0.00,,,0.00,meteohub,2013-04-26 11:47:00,
2013-04-26 07:52:00,64.2,63.3,30.21,South,180,0.0,0.0,97,0.00,,,0.00,meteohub,2013-04-26 11:52:00,
2013-04-26 07:57:00,64.6,64.2,30.21,South,180,0.0,0.0,99,0.00,,,0.00,meteohub,2013-04-26 11:57:00,
2013-04-26 08:02:00,64.9,64.6,30.21,South,180,0.0,0.0,99,0.00,,,0.00,meteohub,2013-04-26 12:02:00,
2013-04-26 08:07:00,65.5,65.1,30.21,South,180,0.0,0.0,99,0.00,,,0.00,meteohub,2013-04-26 12:07:00,
2013-04-26 08:12:00,66.0,65.7,30.22,South,180,0.0,0.0,99,0.00,,,0.00,meteohub,2013-04-26 12:12:00,
2013-04-26 08:17:00,66.7,66.4,30.22,North,0,0.0,0.0,99,0.00,,,0.00,meteohub,2013-04-26 12:17:00,
2013-04-26 08:22:00,67.3,66.9,30.22,North,0,0.0,0.0,99,0.00,,,0.00,meteohub,2013-04-26 12:22:00,
2013-04-26 08:27:00,67.8,67.5,30.22,North,0,1.0,0.0,99,0.00,,,0.00,meteohub,2013-04-26 12:27:00,
2013-04-26 08:32:00,68.7,68.4,30.22,West,270,1.0,1.0,99,0.00,,,0.00,meteohub,2013-04-26 12:32:00,
2013-04-26 08:37:00,69.3,68.7,30.22,East,90,0.0,1.0,98,0.00,,,0.00,meteohub,2013-04-26 12:37:00,
2013-04-26 08:42:00,70.0,68.7,30.22,North,0,0.0,2.0,96,0.00,,,0.00,meteohub,2013-04-26 12:42:00,
2013-04-26 08:47:00,70.5,69.1,30.22,North,0,0.0,2.0,95,0.00,,,0.00,meteohub,2013-04-26 12:47:00,
2013-04-26 08:52:00,70.9,69.1,30.22,North,0,0.0,2.0,94,0.00,,,0.00,meteohub,2013-04-26 12:52:00,
2013-04-26 08:57:00,71.4,69.3,30.22,North,0,0.0,1.0,93,0.00,,,0.00,meteohub,2013-04-26 12:57:00,
2013-04-26 09:02:00,71.8,69.1,30.22,East,90,0.0,2.0,91,0.00,,,0.00,meteohub,2013-04-26 13:02:00,
2013-04-26 09:07:00,72.3,68.9,30.23,East,90,2.0,2.0,89,0.00,,,0.00,meteohub,2013-04-26 13:07:00,
2013-04-26 09:12:00,72.7,67.6,30.23,North,0,2.0,3.0,84,0.00,,,0.00,meteohub,2013-04-26 13:12:00,
2013-04-26 09:17:00,73.0,67.3,30.23,SE,135,3.0,3.0,82,0.00,,,0.00,meteohub,2013-04-26 13:17:00,
2013-04-26 09:22:00,73.8,68.0,30.23,NW,315,2.0,3.0,82,0.00,,,0.00,meteohub,2013-04-26 13:22:00,
2013-04-26 09:27:00,74.1,67.6,30.24,East,90,1.0,3.0,80,0.00,,,0.00,meteohub,2013-04-26 13:27:00,
2013-04-26 09:32:00,74.7,68.4,30.24,North,0,1.0,3.0,81,0.00,,,0.00,meteohub,2013-04-26 13:32:00,
2013-04-26 09:37:00,75.2,68.5,30.24,NNE,23,2.0,2.0,80,0.00,,,0.00,meteohub,2013-04-26 13:37:00,
2013-04-26 09:42:00,75.6,68.5,30.24,East,90,2.0,2.0,79,0.00,,,0.00,meteohub,2013-04-26 13:42:00,
2013-04-26 09:47:00,76.3,69.3,30.24,West,270,1.0,2.0,79,0.00,,,0.00,meteohub,2013-04-26 13:47:00,
2013-04-26 09:52:00,77.0,68.0,30.24,NNW,338,2.0,2.0,74,0.00,,,0.00,meteohub,2013-04-26 13:52:00,
2013-04-26 09:57:00,77.4,68.4,30.24,South,180,2.0,2.0,74,0.00,,,0.00,meteohub,2013-04-26 13:57:00,
2013-04-26 10:02:00,78.1,69.1,30.24,SE,135,2.0,2.0,74,0.00,,,0.00,meteohub,2013-04-26 14:02:00,
2013-04-26 10:07:00,78.6,68.0,30.25,NE,45,2.0,2.0,70,0.00,,,0.00,meteohub,2013-04-26 14:07:00,
2013-04-26 10:12:00,78.8,66.9,30.25,North,0,2.0,3.0,67,0.00,,,0.00,meteohub,2013-04-26 14:12:00,
2013-04-26 10:17:00,79.0,67.5,30.25,North,0,3.0,3.0,68,0.00,,,0.00,meteohub,2013-04-26 14:17:00,
2013-04-26 10:22:00,79.3,67.5,30.26,NE,45,2.0,3.0,67,0.00,,,0.00,meteohub,2013-04-26 14:22:00,
2013-04-26 10:27:00,79.5,67.6,30.25,West,270,2.0,3.0,67,0.00,,,0.00,meteohub,2013-04-26 14:27:00,
2013-04-26 10:32:00,79.7,67.8,30.25,East,90,1.0,3.0,67,0.00,,,0.00,meteohub,2013-04-26 14:32:00,
2013-04-26 10:37:00,80.6,67.8,30.26,West,270,2.0,4.0,65,0.00,,,0.00,meteohub,2013-04-26 14:37:00,
2013-04-26 10:42:00,80.8,66.9,30.26,East,90,2.0,4.0,63,0.00,,,0.00,meteohub,2013-04-26 14:42:00,
2013-04-26 10:47:00,81.0,67.1,30.26,North,0,2.0,4.0,63,0.00,,,0.00,meteohub,2013-04-26 14:47:00,
2013-04-26 10:52:00,81.1,66.4,30.26,West,270,3.0,4.0,61,0.00,,,0.00,meteohub,2013-04-26 14:52:00,
2013-04-26 10:57:00,82.2,66.9,30.26,North,0,3.0,4.0,60,0.00,,,0.00,meteohub,2013-04-26 14:57:00,
2013-04-26 11:02:00,82.6,66.4,30.26,SSW,203,2.0,4.0,58,0.00,,,0.00,meteohub,2013-04-26 15:02:00,
2013-04-26 11:07:00,82.6,66.4,30.26,North,0,2.0,4.0,58,0.00,,,0.00,meteohub,2013-04-26 15:07:00,
2013-04-26 11:12:00,82.8,66.6,30.26,NW,315,1.0,4.0,58,0.00,,,0.00,meteohub,2013-04-26 15:12:00,
2013-04-26 11:17:00,82.9,67.1,30.26,SE,135,2.0,4.0,59,0.00,,,0.00,meteohub,2013-04-26 15:17:00,
2013-04-26 11:22:00,83.3,68.0,30.26,North,0,2.0,4.0,60,0.00,,,0.00,meteohub,2013-04-26 15:22:00,
2013-04-26 11:27:00,83.7,66.4,30.26,SE,135,1.0,3.0,56,0.00,,,0.00,meteohub,2013-04-26 15:27:00,
2013-04-26 11:32:00,84.0,67.1,30.25,North,0,2.0,4.0,57,0.00,,,0.00,meteohub,2013-04-26 15:32:00,
2013-04-26 11:37:00,84.0,66.6,30.26,NE,45,2.0,4.0,56,0.00,,,0.00,meteohub,2013-04-26 15:37:00,
2013-04-26 11:42:00,84.0,66.2,30.26,North,0,2.0,4.0,55,0.00,,,0.00,meteohub,2013-04-26 15:42:00,
2013-04-26 11:47:00,84.4,65.8,30.26,NE,45,2.0,4.0,54,0.00,,,0.00,meteohub,2013-04-26 15:47:00,
2013-04-26 11:52:00,84.9,67.5,30.25,NE,45,2.0,4.0,56,0.00,,,0.00,meteohub,2013-04-26 15:52:00,
2013-04-26 11:57:00,85.1,66.6,30.25,SE,135,2.0,4.0,54,0.00,,,0.00,meteohub,2013-04-26 15:57:00,
2013-04-26 12:02:00,84.7,65.7,30.25,East,90,3.0,4.0,53,0.00,,,0.00,meteohub,2013-04-26 16:02:00,
2013-04-26 12:07:00,84.7,65.7,30.25,East,90,2.0,4.0,53,0.00,,,0.00,meteohub,2013-04-26 16:07:00,
2013-04-26 12:12:00,85.1,66.0,30.25,NE,45,2.0,4.0,53,0.00,,,0.00,meteohub,2013-04-26 16:12:00,
2013-04-26 12:17:00,85.5,66.4,30.25,NE,45,3.0,3.0,53,0.00,,,0.00,meteohub,2013-04-26 16:17:00,
2013-04-26 12:22:00,85.8,66.7,30.25,East,90,2.0,4.0,53,0.00,,,0.00,meteohub,2013-04-26 16:22:00,
2013-04-26 12:27:00,85.8,66.7,30.25,East,90,2.0,4.0,53,0.00,,,0.00,meteohub,2013-04-26 16:27:00,
2013-04-26 12:32:00,85.8,67.3,30.25,West,270,2.0,4.0,54,0.00,,,0.00,meteohub,2013-04-26 16:32:00,
2013-04-26 12:37:00,85.5,65.3,30.24,West,270,2.0,4.0,51,0.00,,,0.00,meteohub,2013-04-26 16:37:00,
2013-04-26 12:42:00,84.7,65.7,30.24,NW,315,3.0,4.0,53,0.00,,,0.00,meteohub,2013-04-26 16:42:00,
2013-04-26 12:47:00,84.9,65.3,30.24,North,0,3.0,4.0,52,0.00,,,0.00,meteohub,2013-04-26 16:47:00,
2013-04-26 12:52:00,85.5,65.8,30.24,East,90,4.0,4.0,52,0.00,,,0.00,meteohub,2013-04-26 16:52:00,
2013-04-26 12:57:00,86.2,67.1,30.24,North,0,3.0,4.0,53,0.00,,,0.00,meteohub,2013-04-26 16:57:00,
2013-04-26 13:02:00,87.3,66.4,30.24,NW,315,4.0,4.0,50,0.00,,,0.00,meteohub,2013-04-26 17:02:00,
2013-04-26 13:07:00,87.8,66.2,30.23,North,0,3.0,4.0,49,0.00,,,0.00,meteohub,2013-04-26 17:07:00,
2013-04-26 13:12:00,87.6,66.0,30.24,South,180,3.0,4.0,49,0.00,,,0.00,meteohub,2013-04-26 17:12:00,
2013-04-26 13:17:00,87.3,65.8,30.23,North,0,2.0,4.0,49,0.00,,,0.00,meteohub,2013-04-26 17:17:00,
2013-04-26 13:22:00,87.3,67.5,30.22,NW,315,1.0,4.0,52,0.00,,,0.00,meteohub,2013-04-26 17:22:00,
2013-04-26 13:27:00,88.0,65.3,30.23,SE,135,2.0,4.0,47,0.00,,,0.00,meteohub,2013-04-26 17:27:00,
2013-04-26 13:32:00,87.4,65.3,30.23,East,90,2.0,4.0,48,0.00,,,0.00,meteohub,2013-04-26 17:32:00,
2013-04-26 13:37:00,86.2,65.3,30.22,SE,135,3.0,4.0,50,0.00,,,0.00,meteohub,2013-04-26 17:37:00,
2013-04-26 13:42:00,86.5,66.2,30.22,North,0,3.0,4.0,51,0.00,,,0.00,meteohub,2013-04-26 17:42:00,
2013-04-26 13:47:00,87.4,65.8,30.22,NW,315,1.0,4.0,49,0.00,,,0.00,meteohub,2013-04-26 17:47:00,
2013-04-26 13:52:00,88.2,65.3,30.22,SW,225,2.0,4.0,47,0.00,,,0.00,meteohub,2013-04-26 17:52:00,
2013-04-26 13:57:00,88.2,66.0,30.22,West,270,4.0,4.0,48,0.00,,,0.00,meteohub,2013-04-26 17:57:00,
2013-04-26 14:02:00,88.9,66.6,30.22,East,90,2.0,4.0,48,0.00,,,0.00,meteohub,2013-04-26 18:02:00,
2013-04-26 14:07:00,89.1,64.9,30.22,North,0,4.0,4.0,45,0.00,,,0.00,meteohub,2013-04-26 18:07:00,
2013-04-26 14:12:00,89.2,66.4,30.22,North,0,3.0,4.0,47,0.00,,,0.00,meteohub,2013-04-26 18:12:00,
2013-04-26 14:17:00,89.1,64.9,30.22,East,90,2.0,4.0,45,0.00,,,0.00,meteohub,2013-04-26 18:17:00,
2013-04-26 14:22:00,87.6,64.9,30.21,East,90,4.0,4.0,47,0.00,,,0.00,meteohub,2013-04-26 18:22:00,
2013-04-26 14:27:00,87.6,65.5,30.21,East,90,3.0,4.0,48,0.00,,,0.00,meteohub,2013-04-26 18:27:00,
2013-04-26 14:32:00,87.8,65.1,30.21,NE,45,4.0,4.0,47,0.00,,,0.00,meteohub,2013-04-26 18:32:00,
2013-04-26 14:37:00,89.2,65.7,30.21,SE,135,3.0,4.0,46,0.00,,,0.00,meteohub,2013-04-26 18:37:00,
2013-04-26 14:42:00,90.0,65.1,30.21,East,90,3.0,4.0,44,0.00,,,0.00,meteohub,2013-04-26 18:42:00,
2013-04-26 14:47:00,90.0,65.1,30.21,West,270,2.0,4.0,44,0.00,,,0.00,meteohub,2013-04-26 18:47:00,
2013-04-26 14:52:00,90.0,65.1,30.20,NW,315,3.0,4.0,44,0.00,,,0.00,meteohub,2013-04-26 18:52:00,
2013-04-26 14:57:00,89.2,63.9,30.21,West,270,3.0,5.0,43,0.00,,,0.00,meteohub,2013-04-26 18:57:00,
2013-04-26 15:02:00,88.2,63.5,30.20,ESE,113,2.0,5.0,44,0.00,,,0.00,meteohub,2013-04-26 19:02:00,
2013-04-26 15:08:00,87.8,63.9,30.20,NE,45,2.0,5.0,45,0.00,,,0.00,meteohub,2013-04-26 19:08:00,
2013-04-26 15:13:00,88.7,65.3,30.20,NE,45,4.0,4.0,46,0.00,,,0.00,meteohub,2013-04-26 19:13:00,
2013-04-26 15:18:00,89.2,65.1,30.20,East,90,3.0,4.0,45,0.00,,,0.00,meteohub,2013-04-26 19:18:00,
2013-04-26 15:23:00,89.4,65.3,30.20,North,0,5.0,8.0,45,0.00,,,0.00,meteohub,2013-04-26 19:23:00,
2013-04-26 15:28:00,90.0,65.1,30.20,ESE,113,4.0,8.0,44,0.00,,,0.00,meteohub,2013-04-26 19:28:00,
2013-04-26 15:33:00,90.1,64.6,30.19,SW,225,3.0,8.0,43,0.00,,,0.00,meteohub,2013-04-26 19:33:00,
2013-04-26 15:38:00,89.6,64.2,30.19,North,0,4.0,5.0,43,0.00,,,0.00,meteohub,2013-04-26 19:38:00,
2013-04-26 15:43:00,89.6,64.2,30.19,NNE,23,3.0,4.0,43,0.00,,,0.00,meteohub,2013-04-26 19:43:00,
2013-04-26 15:48:00,89.8,64.2,30.19,NE,45,5.0,5.0,43,0.00,,,0.00,meteohub,2013-04-26 19:48:00,
2013-04-26 15:53:00,90.1,64.6,30.19,NE,45,4.0,4.0,43,0.00,,,0.00,meteohub,2013-04-26 19:53:00,
2013-04-26 15:58:00,90.1,64.6,30.19,SSE,158,3.0,5.0,43,0.00,,,0.00,meteohub,2013-04-26 19:58:00,
2013-04-26 16:03:00,89.6,64.2,30.19,NW,315,2.0,5.0,43,0.00,,,0.00,meteohub,2013-04-26 20:03:00,
2013-04-26 16:08:00,89.1,64.2,30.19,NE,45,2.0,5.0,44,0.00,,,0.00,meteohub,2013-04-26 20:08:00,
2013-04-26 16:13:00,89.1,64.2,30.18,West,270,2.0,5.0,44,0.00,,,0.00,meteohub,2013-04-26 20:13:00,
2013-04-26 16:18:00,89.1,64.2,30.18,SW,225,3.0,4.0,44,0.00,,,0.00,meteohub,2013-04-26 20:18:00,
2013-04-26 16:23:00,88.7,64.6,30.18,SE,135,2.0,4.0,45,0.00,,,0.00,meteohub,2013-04-26 20:23:00,
2013-04-26 16:28:00,88.5,63.9,30.18,North,0,2.0,4.0,44,0.00,,,0.00,meteohub,2013-04-26 20:28:00,
2013-04-26 16:33:00,88.5,63.9,30.19,NE,45,2.0,4.0,44,0.00,,,0.00,meteohub,2013-04-26 20:33:00,
2013-04-26 16:38:00,88.0,64.0,30.19,East,90,4.0,4.0,45,0.00,,,0.00,meteohub,2013-04-26 20:38:00,
2013-04-26 16:43:00,87.6,63.7,30.19,NE,45,2.0,4.0,45,0.00,,,0.00,meteohub,2013-04-26 20:43:00,
2013-04-26 16:48:00,87.6,63.7,30.18,NW,315,2.0,4.0,45,0.00,,,0.00,meteohub,2013-04-26 20:48:00,
2013-04-26 16:53:00,88.0,64.0,30.18,South,180,4.0,4.0,45,0.00,,,0.00,meteohub,2013-04-26 20:53:00,
2013-04-26 16:59:00,87.6,64.2,30.18,NE,45,4.0,4.0,46,0.00,,,0.00,meteohub,2013-04-26 20:59:00,
2013-04-26 17:04:00,87.1,64.4,30.18,NE,45,3.0,4.0,47,0.00,,,0.00,meteohub,2013-04-26 21:04:00,
2013-04-26 17:09:00,86.9,64.2,30.18,SE,135,4.0,8.0,47,0.00,,,0.00,meteohub,2013-04-26 21:09:00,
2013-04-26 17:14:00,86.7,64.8,30.18,North,0,4.0,8.0,48,0.00,,,0.00,meteohub,2013-04-26 21:14:00,
2013-04-26 17:19:00,86.4,64.4,30.18,SE,135,3.0,4.0,48,0.00,,,0.00,meteohub,2013-04-26 21:19:00,
2013-04-26 17:24:00,86.7,64.8,30.17,NE,45,4.0,4.0,48,0.00,,,0.00,meteohub,2013-04-26 21:24:00,
2013-04-26 17:29:00,87.4,64.8,30.18,NE,45,3.0,4.0,47,0.00,,,0.00,meteohub,2013-04-26 21:29:00,
2013-04-26 17:34:00,88.0,64.6,30.18,East,90,2.0,4.0,46,0.00,,,0.00,meteohub,2013-04-26 21:34:00,
2013-04-26 17:39:00,88.0,64.6,30.18,SW,225,2.0,6.0,46,0.00,,,0.00,meteohub,2013-04-26 21:39:00,
2013-04-26 17:44:00,87.4,64.0,30.18,NW,315,2.0,6.0,46,0.00,,,0.00,meteohub,2013-04-26 21:44:00,
2013-04-26 17:49:00,87.1,64.9,30.18,NW,315,4.0,6.0,48,0.00,,,0.00,meteohub,2013-04-26 21:49:00,
2013-04-26 17:54:00,86.9,64.8,30.18,North,0,3.0,7.0,48,0.00,,,0.00,meteohub,2013-04-26 21:54:00,
2013-04-26 17:59:00,86.9,64.8,30.18,NW,315,3.0,7.0,48,0.00,,,0.00,meteohub,2013-04-26 21:59:00,
2013-04-26 18:04:00,86.7,65.3,30.18,SW,225,2.0,7.0,49,0.00,,,0.00,meteohub,2013-04-26 22:04:00,
2013-04-26 18:09:00,86.4,64.9,30.18,NE,45,2.0,5.0,49,0.00,,,0.00,meteohub,2013-04-26 22:09:00,
2013-04-26 18:14:00,86.0,65.8,30.18,North,0,5.0,5.0,51,0.00,,,0.00,meteohub,2013-04-26 22:14:00,
2013-04-26 18:19:00,86.0,65.8,30.19,West,270,2.0,5.0,51,0.00,,,0.00,meteohub,2013-04-26 22:19:00,
2013-04-26 18:24:00,85.8,66.7,30.19,East,90,2.0,5.0,53,0.00,,,0.00,meteohub,2013-04-26 22:24:00,
2013-04-26 18:29:00,85.8,66.7,30.19,North,0,3.0,5.0,53,0.00,,,0.00,meteohub,2013-04-26 22:29:00,
2013-04-26 18:34:00,85.1,66.6,30.19,NE,45,4.0,7.0,54,0.00,,,0.00,meteohub,2013-04-26 22:34:00,
2013-04-26 18:39:00,84.0,66.6,30.19,East,90,2.0,7.0,56,0.00,,,0.00,meteohub,2013-04-26 22:39:00,
2013-04-26 18:44:00,83.3,66.0,30.19,SE,135,3.0,7.0,56,0.00,,,0.00,meteohub,2013-04-26 22:44:00,
2013-04-26 18:50:00,82.6,65.3,30.19,West,270,2.0,5.0,56,0.00,,,0.00,meteohub,2013-04-26 22:50:00,
2013-04-26 18:55:00,82.0,65.8,30.19,NE,45,3.0,6.0,58,0.00,,,0.00,meteohub,2013-04-26 22:55:00,
2013-04-26 19:00:00,81.7,66.9,30.19,SE,135,3.0,6.0,61,0.00,,,0.00,meteohub,2013-04-26 23:00:00,
2013-04-26 19:05:00,81.5,66.7,30.20,NNE,23,4.0,7.0,61,0.00,,,0.00,meteohub,2013-04-26 23:05:00,
2013-04-26 19:10:00,81.3,66.6,30.20,North,0,2.0,7.0,61,0.00,,,0.00,meteohub,2013-04-26 23:10:00,
2013-04-26 19:15:00,80.8,66.6,30.20,NNE,23,5.0,7.0,62,0.00,,,0.00,meteohub,2013-04-26 23:15:00,
2013-04-26 19:20:00,80.4,66.7,30.19,East,90,6.0,6.0,63,0.00,,,0.00,meteohub,2013-04-26 23:20:00,
2013-04-26 19:25:00,80.2,66.6,30.20,NE,45,4.0,6.0,63,0.00,,,0.00,meteohub,2013-04-26 23:25:00,
2013-04-26 19:30:00,79.7,66.0,30.20,NE,45,7.0,7.0,63,0.00,,,0.00,meteohub,2013-04-26 23:30:00,
2013-04-26 19:35:00,79.3,66.0,30.20,North,0,2.0,8.0,64,0.00,,,0.00,meteohub,2013-04-26 23:35:00,
2013-04-26 19:40:00,79.0,66.2,30.20,NE,45,3.0,8.0,65,0.00,,,0.00,meteohub,2013-04-26 23:40:00,
2013-04-26 19:45:00,78.6,66.4,30.20,NE,45,2.0,8.0,66,0.00,,,0.00,meteohub,2013-04-26 23:45:00,
2013-04-26 19:50:00,78.4,66.6,30.20,East,90,2.0,4.0,67,0.00,,,0.00,meteohub,2013-04-26 23:50:00,
2013-04-26 20:06:00,77.7,66.7,30.20,NE,45,2.0,3.0,69,0.00,,,0.00,meteohub,2013-04-27 00:06:00,
2013-04-26 20:11:00,77.4,66.4,30.20,North,0,3.0,5.0,69,0.00,,,0.00,meteohub,2013-04-27 00:11:00,
2013-04-26 20:16:00,77.2,66.6,30.20,North,0,3.0,5.0,70,0.00,,,0.00,meteohub,2013-04-27 00:16:00,
2013-04-26 20:21:00,77.0,66.4,30.20,NW,315,0.0,3.0,70,0.00,,,0.00,meteohub,2013-04-27 00:21:00,
2013-04-26 20:26:00,76.8,67.1,30.21,North,0,2.0,3.0,72,0.00,,,0.00,meteohub,2013-04-27 00:26:00,
2013-04-26 20:31:00,76.5,67.1,30.21,North,0,2.0,3.0,73,0.00,,,0.00,meteohub,2013-04-27 00:31:00,
2013-04-26 20:36:00,76.3,66.9,30.21,North,0,0.0,3.0,73,0.00,,,0.00,meteohub,2013-04-27 00:36:00,
2013-04-26 20:41:00,75.9,67.1,30.21,North,0,0.0,2.0,74,0.00,,,0.00,meteohub,2013-04-27 00:41:00,
2013-04-26 20:46:00,75.7,66.9,30.21,East,90,2.0,2.0,74,0.00,,,0.00,meteohub,2013-04-27 00:46:00,
2013-04-26 20:51:00,75.6,67.1,30.21,NE,45,2.0,2.0,75,0.00,,,0.00,meteohub,2013-04-27 00:51:00,
2013-04-26 20:56:00,75.6,67.1,30.22,West,270,0.0,2.0,75,0.00,,,0.00,meteohub,2013-04-27 00:56:00,
2013-04-26 21:01:00,75.2,66.7,30.22,SE,135,2.0,2.0,75,0.00,,,0.00,meteohub,2013-04-27 01:01:00,
2013-04-26 21:06:00,75.0,67.3,30.22,NE,45,0.0,2.0,77,0.00,,,0.00,meteohub,2013-04-27 01:06:00,
2013-04-26 21:11:00,74.8,67.1,30.22,East,90,0.0,2.0,77,0.00,,,0.00,meteohub,2013-04-27 01:11:00,
2013-04-26 21:16:00,74.7,67.3,30.22,NE,45,2.0,2.0,78,0.00,,,0.00,meteohub,2013-04-27 01:16:00,
2013-04-26 21:21:00,74.5,67.1,30.23,East,90,2.0,2.0,78,0.00,,,0.00,meteohub,2013-04-27 01:21:00,
2013-04-26 21:26:00,74.3,66.9,30.23,NE,45,0.0,2.0,78,0.00,,,0.00,meteohub,2013-04-27 01:26:00,
2013-04-26 21:31:00,74.3,67.3,30.24,SE,135,2.0,2.0,79,0.00,,,0.00,meteohub,2013-04-27 01:31:00,
2013-04-26 21:36:00,74.1,67.6,30.23,NE,45,0.0,4.0,80,0.00,,,0.00,meteohub,2013-04-27 01:36:00,
2013-04-26 21:41:00,73.9,67.5,30.24,East,90,0.0,4.0,80,0.00,,,0.00,meteohub,2013-04-27 01:41:00,
2013-04-26 21:47:00,73.9,67.5,30.24,East,90,0.0,4.0,80,0.00,,,0.00,meteohub,2013-04-27 01:47:00,
2013-04-26 21:52:00,73.6,67.5,30.24,North,0,1.0,2.0,81,0.00,,,0.00,meteohub,2013-04-27 01:52:00,
2013-04-26 21:57:00,73.4,67.3,30.25,East,90,0.0,1.0,81,0.00,,,0.00,meteohub,2013-04-27 01:57:00,
2013-04-26 22:02:00,73.4,67.6,30.25,NE,45,0.0,2.0,82,0.00,,,0.00,meteohub,2013-04-27 02:02:00,
2013-04-26 22:07:00,73.2,67.5,30.25,NE,45,2.0,2.0,82,0.00,,,0.00,meteohub,2013-04-27 02:07:00,
2013-04-26 22:12:00,73.0,67.3,30.25,NE,45,0.0,2.0,82,0.00,,,0.00,meteohub,2013-04-27 02:12:00,
2013-04-26 22:17:00,72.9,67.1,30.26,NE,45,0.0,2.0,82,0.00,,,0.00,meteohub,2013-04-27 02:17:00,
2013-04-26 22:22:00,72.7,67.3,30.25,NE,45,0.0,2.0,83,0.00,,,0.00,meteohub,2013-04-27 02:22:00,
2013-04-26 22:27:00,72.7,67.3,30.25,NE,45,0.0,0.0,83,0.00,,,0.00,meteohub,2013-04-27 02:27:00,
2013-04-26 22:32:00,72.5,67.1,30.25,NE,45,0.0,0.0,83,0.00,,,0.00,meteohub,2013-04-27 02:32:00,
2013-04-26 22:37:00,72.1,66.7,30.26,NE,45,0.0,0.0,83,0.00,,,0.00,meteohub,2013-04-27 02:37:00,
2013-04-26 22:42:00,72.0,66.6,30.26,SE,135,0.0,0.0,83,0.00,,,0.00,meteohub,2013-04-27 02:42:00,
2013-04-26 22:47:00,71.6,66.6,30.26,SE,135,0.0,0.0,84,0.00,,,0.00,meteohub,2013-04-27 02:47:00,
2013-04-26 22:52:00,71.4,66.7,30.25,SE,135,0.0,0.0,85,0.00,,,0.00,meteohub,2013-04-27 02:52:00,
2013-04-26 22:57:00,71.1,66.7,30.26,SE,135,0.0,0.0,86,0.00,,,0.00,meteohub,2013-04-27 02:57:00,
2013-04-26 23:02:00,70.9,66.6,30.26,SE,135,0.0,0.0,86,0.00,,,0.00,meteohub,2013-04-27 03:02:00,
2013-04-26 23:07:00,70.7,66.6,30.26,SE,135,0.0,0.0,87,0.00,,,0.00,meteohub,2013-04-27 03:07:00,
2013-04-26 23:12:00,70.3,66.2,30.26,SE,135,0.0,0.0,87,0.00,,,0.00,meteohub,2013-04-27 03:12:00,
2013-04-26 23:17:00,70.2,66.4,30.26,North,0,0.0,0.0,88,0.00,,,0.00,meteohub,2013-04-27 03:17:00,
2013-04-26 23:22:00,70.0,66.2,30.26,North,0,0.0,0.0,88,0.00,,,0.00,meteohub,2013-04-27 03:22:00,
2013-04-26 23:27:00,70.0,66.6,30.26,North,0,0.0,0.0,89,0.00,,,0.00,meteohub,2013-04-27 03:27:00,
2013-04-26 23:32:00,69.8,66.4,30.26,NE,45,0.0,0.0,89,0.00,,,0.00,meteohub,2013-04-27 03:32:00,
2013-04-26 23:37:00,69.6,66.9,30.25,NE,45,0.0,0.0,91,0.00,,,0.00,meteohub,2013-04-27 03:37:00,
2013-04-26 23:42:00,69.6,66.9,30.25,North,0,0.0,0.0,91,0.00,,,0.00,meteohub,2013-04-27 03:42:00,
2013-04-26 23:47:00,69.4,66.7,30.26,North,0,0.0,0.0,91,0.00,,,0.00,meteohub,2013-04-27 03:47:00,
2013-04-26 23:52:00,69.3,66.9,30.26,North,0,0.0,0.0,92,0.00,,,0.00,meteohub,2013-04-27 03:52:00,
2013-04-26 23:57:00,69.3,66.9,30.25,North,0,0.0,0.0,92,0.00,,,0.00,meteohub,2013-04-27 03:57:00,